Regional Weather Roundup
Issued by NWS Green Bay, WI

Home | Current Version | Previous Version | Graphics & Text | Print | Product List | Glossary Off
Versions: 1 2 3 4 5 6 7 8 9 10 11 12 13 14 15 16 17 18 19 20 21 22 23 24 25 26 27 28 29 30 31 32 33 34 35 36 37 38 39 40 41 42 43 44 45 46 47 48 49 50

558
ASUS43 KGRB 100211
RWRGRB

NORTH-CENTRAL AND NORTHEAST WISCONSIN REGIONAL WEATHER ROUNDUP
NATIONAL WEATHER SERVICE GREEN BAY WI
800 PM CST TUE FEB 09 2016

WIZ005-009-010>012-018-019-100300-
NORTH CENTRAL WISCONSIN

CITY           SKY/WX    TMP DP  RH WIND       PRES   REMARKS
IRONWOOD       CLOUDY     9   5  85 N14G22    29.97F WCI  -8
MANITOWISH WTR FLURRIES   8   2  78 N13G21    29.93F WCI  -8
ARBOR VITAE    LGT SNOW  11   7  82 N8        29.92F WCI   0
EAGLE RIVER    LGT SNOW   9   1  72 N10G21    29.90S WCI  -6
LAND O LAKES   LGT SNOW   9   4  80 N15G22    29.91S WCI  -8
RHINELANDER    LGT SNOW   8   2  76 NW5       29.91F WCI   0
PHILLIPS       CLOUDY     8   0  71 N13G18    29.96F WCI  -8
ANTIGO         CLOUDY     9   1  72 N16G28    29.91S HAZE    WCI  -9
TOMAHAWK       CLOUDY     8   1  72 NW9G16    29.94F WCI  -5
MERRILL        CLOUDY     9   1  68 N8        29.96F WCI  -3
$$

WIZ013-073-100300-
NORTHEAST WISCONSIN

CITY           SKY/WX    TMP DP  RH WIND       PRES   REMARKS
IRON MOUNTAIN  CLOUDY    11   2  67 NW16G30   29.88S WCI  -6
MARINETTE      CLOUDY    12   3  67 NW10G20   29.90S WCI  -1
OCONTO         CLOUDY    13   7  79 NW7       29.94R WCI   2
$$

WIZ017-030-035>037-045-100300-
CENTRAL WISCONSIN

CITY           SKY/WX    TMP DP  RH WIND       PRES   REMARKS
MEDFORD        CLOUDY     8   1  70 N14G21    29.95F WCI  -8
WAUSAU         CLOUDY    11   0  61 NW12G22   29.95S WCI  -3
MOSINEE        CLOUDY     9   1  72 NW14G29   29.98R WCI  -8
MARSHFIELD     CLOUDY    10  -1  61 N14       29.97F WCI  -6
WISC RAPIDS    CLOUDY    11   0  61 N10       30.00S WCI  -3
STEVENS POINT  CLOUDY     9  -1  62 NW17G23   29.98S WCI  -9
WAUPACA        CLOUDY    16   3  56 NW13G24   29.97R WCI   2
SHAWANO        CLOUDY    16   4  58 NW7G17    29.95R WCI   6
CLINTONVILLE   CLOUDY    14   3  62 N13G21    29.95R WCI   0
WAUTOMA        CLOUDY    13   1  58 NW15G24   29.99R WCI  -3
$$

WIZ038-039-048-051-100300-
FOX VALLEY

CITY           SKY/WX    TMP DP  RH WIND       PRES   REMARKS
NWS GREEN BAY  LGT SNOW  14   7  73 N9        29.94R WCI   2
APPLETON       MOCLDY    16   1  53 NW20      29.91R WCI  -1
OSHKOSH        CLOUDY    16   5  62 NW13      29.93R WCI   2
FOND DU LAC    CLOUDY    16   6  65 N14       29.93R WCI   2
$$

WIZ022-050-052-100300-
EAST CENTRAL WISCONSIN

CITY           SKY/WX    TMP DP  RH WIND       PRES   REMARKS
EPHRAIM        LGT SNOW  13   6  72 NW21G28   29.85S WCI  -5
STURGEON BAY   CLOUDY    12   5  73 NW14G20   29.91R WCI  -3
MANITOWOC      LGT SNOW  15  10  80 NW18      29.91R WCI  -2
SHEBOYGAN      LGT SNOW  15   8  73 N15       29.90S WCI   0
$$

LMZ563-521-522-541>543-100300-
LAKESHORE

STATION/POSITION TIME  TEMP    WIND        PRES    VSBY  WAVE
                       AIR SEA DIR/SP/G                  HT/PER
                 (UTC) (F)     (DEG/KT/KT) (MB)    (MI)  (FT/S)
SHEBOYGAN LKSHOR 0200   16     320/ 17/ 20 1014.3R
KEWAUNEE LKSHORE 0100   15     330/ 14/ 18 1011.5R
ALGOMA MARINA    0111          320/ 16/ 26   N/A
CHAMBERS ISLAND  0140   14     300/ 15/ 25 1012.2S
MENOMINEE LKSHOR 0100   14     300/ 15     1011.6R
$$




USA.gov is the U.S. government's official web portal to all federal, state and local government web resources and services.